Location: Hurecourt
(47.9030°N, 6.0653°E)
Time: 10:47:09
(UTC+00:00)

Cosmos 1441 Rocket - Pass Details

Date: 14 July 2020
Orbit: 495 x 541 km, 81.1° (Epoch: 06 August)

Event Time Altitude Azimuth Distance (km) Brightness Sun altitude
Exits shadow 00:10:53 53° 233° (SW) 670 3.4 -20.2°
Maximum altitude 00:11:35 64° 283° (WNW) 599 3.4 -20.1°
Drops below altitude 10° 00:15:31 10° 6° (N) 1,796 7.2 -20.0°
Sets 00:17:41 0° 9° (N) 2,684 8.5 -20.0°
